INTELSAT 35E (IS-35E)

Last updated on June 27, 2019, 3:44 a.m. UTC

1 42818U 17041A   19177.12991991 -.00000231  00000-0  00000+0 0  9998
2 42818   0.0411 213.4550 0001458 240.7955 191.9665  1.00274197  7286
UTC
Height (km)
Latitude
Longitude
Inclination
Orbital Period
UTC large
Height (km)
Speed (km/s)
/
Latitude / Longitude
Inclination (degrees)
Orbital Period (minutes)
Azimuth
Elevation
Range (km)
Doppler Factor
iOS Compass Heading
iOS Angle

Next 30 passes for location: Hong Kong

Rise time Rise Azimuth (degrees) Set time Set Azimuth (degrees) Duration Max altitude (degrees)

No matching passes for this satellites